[Date Prev][Date Next][Thread Prev][Thread Next] - [Date Index][Thread Index][Author Index]
2 Line ISS Keps 8-26
- Subject: [sarex] 2 Line ISS Keps 8-26
- From: "Dave Larsen PhD" <doc@xxxxxxxxxxx>
- Date: Mon, 26 Aug 2002 03:13:43 -0700
ISS
1 25544U 98067A 02238.11319444 .00050333 00000-0 64364-3 0 825
2 25544 51.6383 62.0498 0016265 183.1662 316.8240 15.58562592214935
----
Via the sarex mailing list at AMSAT.ORG courtesy of AMSAT-NA.
To unsubscribe, send "unsubscribe sarex" to Majordomo@amsat.org
AMSAT Home